Wind_Speed
8 9 9 10 12 10 6 4 4 4 5 5 6 5 6 6 6 6 7 8 8 9 9 8 8 8 7 7 6 5 5 5 4 4 4 3 3 3 4 4 4 5 6 6 6 6 7 7 7
7 7 8 9 8 4 4 4 5 6 6 7 7 6 7 7 7 7 8 8 8 9 8 8 8 8 7 7 7 6 6 5 5 5 4 3 2 3 3 3 4 4 5 5 6 6 7 7 7
6 7 8 8 5 5 5 5 6 7 7 7 7 7 8 7 8 8 9 9 9 8 8 8 8 8 7 7 6 6 6 5 5 5 4 3 3 3 3 3 3 4 4 5 6 6 7 8 8
5 7 8 6 4 4 5 6 6 7 7 8 8 8 8 9 9 9 9 9 9 9 8 8 8 8 7 7 6 6 5 5 5 5 5 4 3 3 3 3 3 4 5 5 6 7 7 8 8
5 6 6 3 4 6 7 7 6 8 8 9 9 9 9 10 10 10 10 10 9 9 9 8 8 8 7 7 7 6 5 5 5 5 5 5 4 3 3 3 4 4 5 5 6 6 7 7 7
5 7 3 3 5 7 9 8 6 7 8 10 10 10 10 10 11 11 11 10 9 9 9 8 8 8 8 8 7 6 6 5 5 6 6 6 5 4 4 4 4 5 5 5 6 6 7 6 6
5 6 4 2 6 8 9 8 6 7 7 8 10 11 10 10 11 11 11 10 10 10 9 9 8 8 8 8 8 7 6 6 6 6 6 6 6 6 5 5 5 5 5 6 6 6 6 6 6
7 6 4 0 6 9 10 9 7 6 7 8 9 10 11 11 11 11 10 10 10 10 10 10 10 9 8 8 8 7 8 7 7 7 7 7 7 6 6 6 6 6 6 6 7 6 6 6 5
7 5 3 2 7 11 9 8 8 8 7 9 10 11 12 12 12 11 10 11 12 11 11 11 11 10 9 8 8 8 8 8 8 8 8 7 7 7 7 7 7 7 7 7 6 6 6 6 5
7 6 5 7 10 11 8 8 8 8 8 9 10 11 12 12 12 11 11 11 12 12 12 11 11 11 10 9 9 8 8 8 9 9 9 8 8 8 8 8 8 8 8 7 7 6 5 5 5
9 9 9 10 11 11 9 8 8 9 10 10 9 11 12 12 12 12 12 12 13 12 12 11 11 11 11 10 9 9 9 9 10 10 9 9 9 8 8 8 9 9 8 8 7 6 5 5 5
11 11 12 12 11 11 11 10 9 10 13 13 11 11 12 13 12 12 12 13 13 13 12 12 12 11 11 11 10 10 10 10 10 10 10 10 9 9 9 9 9 8 8 8 6 6 7 6 5
12 13 13 12 11 12 12 11 10 10 12 13 12 12 13 13 13 12 12 13 13 13 13 12 13 12 11 11 11 11 10 10 10 10 10 11 11 10 10 10 9 8 7 7 7 6 7 7 5
13 14 14 13 13 13 12 12 12 12 12 13 12 13 13 13 13 13 13 13 13 13 13 13 13 13 12 12 12 12 11 11 11 10 10 10 11 10 10 10 10 9 7 7 7 7 7 7 6
14 14 13 14 14 13 14 13 13 13 13 14 14 13 13 14 14 13 13 13 13 14 14 14 13 13 13 13 13 12 12 11 12 11 11 12 12 11 10 9 9 8 7 7 7 7 7 7 6
14 13 14 15 15 15 15 13 12 13 13 14 15 14 14 14 14 13 14 14 14 15 15 14 14 14 14 14 14 13 13 12 12 12 12 12 12 12 11 10 9 9 8 8 8 7 7 7 7
13 13 13 14 15 15 15 15 14 14 14 15 15 15 16 14 14 14 15 15 15 15 15 15 14 15 14 14 14 14 13 13 13 13 13 13 12 12 11 11 10 10 9 8 8 8 8 8 7
11 11 13 13 16 16 17 16 15 14 15 15 15 16 16 15 14 14 15 16 16 16 16 16 15 15 15 15 15 14 13 14 14 14 14 13 13 13 12 12 11 10 10 10 9 8 8 8 8
13 14 15 14 16 17 18 17 15 14 16 15 15 15 15 15 15 15 16 16 17 18 18 17 16 16 15 15 15 15 14 14 14 14 14 14 14 13 12 12 11 11 10 10 9 8 8 8 8
17 17 16 16 17 16 18 16 14 14 16 16 16 15 16 16 16 17 16 16 17 18 18 18 17 16 16 16 16 16 15 16 15 15 14 14 14 13 12 12 11 11 10 10 9 9 8 8 8
16 15 16 16 18 19 18 16 14 14 16 17 16 17 16 16 17 18 17 17 17 18 18 18 17 17 17 17 17 17 17 16 16 15 15 15 14 14 13 12 11 11 11 10 9 9 8 8 8
15 15 18 19 19 17 17 17 15 15 17 18 18 18 18 17 17 18 19 18 18 18 18 17 17 18 18 18 18 18 18 17 17 17 16 15 14 14 13 12 11 11 11 10 10 9 9 9 9
16 17 17 17 17 17 16 18 17 17 17 17 17 17 18 19 19 19 19 19 19 18 18 18 18 18 18 18 19 18 18 19 18 17 16 15 14 13 12 12 11 11 11 11 10 10 9 10 9
15 15 16 16 17 19 18 19 18 17 19 19 17 18 18 19 20 20 20 19 18 18 18 18 18 18 19 19 18 18 19 19 18 17 17 16 14 14 13 12 12 12 12 11 11 11 10 10 10
15 14 13 14 16 17 15 17 19 20 19 18 17 18 20 20 20 21 21 19 18 19 19 18 18 19 19 18 18 19 19 19 18 17 17 17 15 15 13 13 13 13 13 12 11 11 10 10 10
15 14 14 14 15 14 16 18 20 19 18 18 18 19 20 20 20 20 20 20 19 18 18 19 19 19 19 19 19 19 19 19 18 18 18 18 17 16 15 15 15 14 13 12 12 12 12 12 12
14 14 15 17 17 17 18 18 18 20 18 18 20 20 20 21 20 20 21 21 20 19 19 19 19 19 19 19 20 20 20 20 19 19 19 18 18 17 16 16 16 14 13 13 13 13 13 12 13
15 15 16 17 19 18 16 18 19 19 18 19 21 21 19 20 21 21 22 22 22 20 20 20 20 20 20 20 20 20 20 20 20 20 20 19 18 18 17 16 15 15 15 15 15 14 14 13 14
14 14 16 17 17 17 17 19 21 21 20 19 20 20 23 22 22 22 22 23 22 22 21 20 20 20 20 21 21 21 21 20 21 20 20 20 19 19 18 17 17 16 16 16 16 15 15 15 15
14 15 16 17 18 18 17 21 22 22 21 22 21 21 21 23 23 22 23 22 22 23 21 21 21 21 21 21 21 21 21 20 20 20 20 20 19 18 18 17 17 17 17 17 17 16 16 16 16
Wind_Direction
85 82 75 73 69 64 59 26 343 342 349 353 357 353 352 351 346 347 347 355 0 359 355 351 349 350 348 344 340 341 338 333 328 316 300 281 272 269 266 263 262 263 259 257 258 259 258 255 258
91 89 81 71 61 54 34 360 337 343 352 355 356 349 347 349 349 349 349 353 356 354 353 352 348 347 346 344 340 343 344 338 335 331 319 295 283 279 266 270 270 271 268 266 269 269 265 262 260
103 95 79 60 34 356 358 339 329 333 351 350 351 344 344 346 348 346 347 349 349 352 355 355 352 347 343 341 340 339 342 342 341 338 331 318 302 294 285 277 280 280 280 280 275 273 269 267 264
116 99 81 60 345 347 339 317 325 328 338 340 344 345 349 349 349 346 348 350 353 356 359 359 355 350 345 342 337 339 339 338 340 343 341 329 315 303 295 287 288 287 290 289 282 275 271 270 268
125 99 83 40 318 316 299 295 310 318 335 336 338 345 349 347 346 346 346 348 352 358 358 358 357 353 349 347 341 337 337 335 338 341 344 334 323 312 299 292 292 294 293 293 292 284 274 274 274
139 112 101 339 303 289 291 299 304 314 324 325 333 340 346 344 345 346 346 346 354 357 354 356 354 348 346 347 341 337 338 333 332 335 335 332 328 325 313 304 302 298 294 294 295 289 282 279 279
161 146 143 286 294 288 287 292 299 302 304 318 327 329 340 344 342 344 345 345 349 349 350 352 349 347 345 346 343 338 338 336 330 327 326 327 327 326 323 310 306 301 299 300 299 294 288 279 278
169 172 151 271 289 277 283 293 295 290 297 311 317 322 337 341 341 342 343 343 347 344 344 344 343 344 342 343 347 344 339 336 328 326 323 321 322 324 322 313 308 306 302 300 301 299 288 278 277
175 174 167 236 259 263 274 284 286 292 301 308 310 317 328 333 335 337 339 340 344 343 342 340 339 342 339 336 340 342 337 336 332 325 320 319 318 318 317 314 310 306 303 299 301 298 286 274 271
189 194 209 236 238 251 263 273 285 287 286 293 304 313 320 324 328 330 333 336 339 340 342 342 340 339 338 339 337 339 333 331 332 328 320 316 316 316 317 313 310 308 303 300 296 289 278 269 263
210 216 220 235 242 248 260 269 275 280 282 283 301 311 316 319 321 325 330 331 334 336 338 340 340 337 334 334 333 330 328 328 329 325 322 320 318 315 317 314 312 308 304 300 296 285 280 269 262
224 227 230 235 247 250 253 260 272 284 289 291 295 307 309 315 318 321 325 325 326 328 332 336 336 334 331 329 327 327 327 325 323 321 321 320 319 321 319 315 312 307 302 301 297 282 281 277 261
237 240 239 244 248 252 251 259 269 280 289 295 304 309 310 313 316 317 319 322 324 326 328 330 332 329 326 324 323 323 323 322 322 323 320 319 320 320 322 321 314 316 307 303 302 292 284 282 281
232 247 245 248 255 258 259 266 269 276 280 285 295 301 307 311 313 313 316 317 319 322 325 326 327 325 321 320 320 318 317 318 321 318 318 318 316 315 319 317 316 319 320 309 307 305 293 287 286
235 245 252 256 261 262 262 263 270 277 279 283 289 298 302 304 305 309 312 316 317 319 320 322 321 321 320 318 316 312 312 314 314 314 313 311 312 310 312 314 315 313 314 313 311 301 295 295 286
243 250 256 260 261 263 266 265 264 276 279 280 287 296 299 302 306 308 310 314 315 315 315 317 317 317 316 315 314 311 309 310 309 312 310 308 307 306 305 306 306 308 309 308 304 298 295 292 287
246 252 255 261 264 264 267 267 270 273 278 278 283 290 295 298 302 304 307 309 311 312 312 313 313 313 313 311 310 310 309 311 312 314 310 306 304 302 299 301 302 303 306 306 302 297 292 289 284
239 252 253 259 264 263 267 269 267 268 273 274 279 284 290 296 299 302 305 305 308 310 310 308 309 310 309 309 308 310 308 308 309 309 310 307 304 301 298 298 298 301 305 304 303 301 293 289 285
231 238 240 246 257 259 267 268 264 261 268 270 272 279 286 293 299 300 302 303 305 307 308 308 308 309 307 307 307 309 306 305 306 305 307 307 307 304 299 298 296 297 300 302 299 302 299 292 288
231 238 238 245 251 256 264 266 264 263 266 271 276 280 282 287 294 295 298 302 302 304 305 307 308 309 307 305 305 305 304 301 303 304 303 303 304 304 300 294 291 292 292 293 295 299 298 294 286
234 236 239 242 251 257 262 263 259 263 269 274 278 278 280 283 291 292 297 301 301 302 301 301 304 306 306 304 304 303 302 300 301 303 302 300 300 301 300 297 292 289 287 288 289 293 292 286 283
236 236 239 241 250 260 264 266 264 263 268 272 277 276 277 281 286 291 295 296 299 302 301 299 301 303 304 304 304 303 301 301 301 300 299 297 295 295 293 291 293 294 287 282 282 288 285 281 283
234 239 242 246 254 255 260 263 262 262 264 269 273 275 274 280 286 289 292 294 296 299 300 300 300 301 303 304 303 303 302 303 299 296 295 297 295 290 288 286 289 293 288 279 277 280 278 278 278
240 243 247 250 254 253 252 259 263 264 271 275 273 276 277 280 286 287 289 289 293 295 297 298 300 300 302 303 301 301 304 306 302 296 293 295 291 288 284 282 284 285 286 282 277 276 274 275 275
241 242 249 252 261 268 267 261 262 266 272 273 273 275 273 276 281 282 287 288 292 294 295 296 298 300 302 301 301 301 302 306 304 299 294 291 286 283 279 279 278 278 279 281 281 275 272 271 271
242 241 246 253 256 259 261 258 264 268 271 270 272 276 277 280 283 284 286 288 291 293 295 297 298 299 299 299 299 300 301 303 303 298 297 291 285 279 276 274 274 273 275 277 279 279 272 268 269
244 242 244 255 261 261 261 259 261 260 270 273 274 275 275 281 283 285 287 288 289 291 293 295 298 299 298 296 296 299 301 302 301 297 296 293 288 281 275 272 271 272 275 275 273 274 276 273 268
245 246 243 248 255 260 265 271 272 267 268 273 277 276 274 276 278 280 284 286 287 287 289 292 296 297 297 296 296 297 298 299 298 297 293 291 287 280 276 276 275 275 274 273 273 273 275 277 274
249 246 248 250 252 256 264 268 267 268 272 272 275 276 276 276 276 279 283 286 284 285 285 291 293 293 295 295 295 296 296 296 295 294 293 289 285 279 276 273 273 272 272 271 270 270 271 273 273
247 245 247 251 252 253 259 271 273 275 274 275 276 275 273 274 277 279 282 283 282 285 286 290 290 291 292 294 293 293 295 294 294 292 292 289 285 279 275 272 271 269 270 271 269 268 269 271 271
Height
5905 5905 5905 5905 5905 5905 5905 5905 5905 5904 5903 5901 5900 5899 5897 5897 5897 5897 5893 5890 5890 5888 5887 5886 5885 5884 5883 5882 5881 5880 5879 5878 5878 5877 5876 5876 5875 5875 5875 5874 5874 5874 5874 5874 5874 5875 5875 5875 5875
5906 5906 5906 5906 5906 5906 5905 5905 5905 5904 5903 5901 5900 5899 5898 5897 5896 5894 5892 5891 5890 5889 5887 5885 5884 5884 5883 5882 5881 5880 5879 5878 5877 5877 5876 5875 5875 5874 5874 5874 5874 5874 5873 5873 5874 5873 5873 5873 5873
5906 5906 5906 5907 5908 5907 5907 5906 5906 5904 5903 5902 5901 5900 5898 5897 5896 5894 5893 5891 5890 5889 5887 5885 5884 5883 5883 5882 5881 5880 5879 5878 5877 5876 5876 5875 5874 5874 5874 5874 5873 5873 5873 5872 5872 5872 5872 5872 5871
5906 5907 5908 5910 5910 5909 5909 5907 5906 5904 5904 5902 5901 5900 5898 5897 5896 5894 5893 5891 5890 5889 5887 5886 5884 5883 5882 5881 5880 5879 5878 5878 5877 5876 5875 5875 5874 5874 5873 5873 5873 5872 5872 5871 5871 5871 5870 5870 5870
5906 5906 5909 5911 5911 5911 5910 5908 5905 5905 5903 5902 5901 5900 5898 5897 5896 5894 5892 5891 5889 5888 5887 5886 5885 5884 5882 5881 5880 5879 5878 5877 5877 5876 5875 5875 5874 5874 5873 5873 5872 5872 5871 5871 5870 5869 5869 5869 5868
5906 5907 5909 5911 5911 5911 5910 5908 5906 5905 5904 5902 5900 5899 5898 5897 5896 5894 5892 5891 5889 5888 5887 5886 5885 5884 5882 5881 5880 5879 5878 5877 5877 5876 5875 5874 5874 5873 5872 5872 5872 5871 5870 5870 5869 5868 5868 5867 5867
5906 5906 5909 5911 5911 5911 5910 5908 5907 5905 5904 5902 5900 5898 5898 5897 5896 5894 5892 5890 5888 5888 5887 5886 5885 5883 5882 5881 5879 5878 5878 5877 5877 5876 5875 5874 5873 5873 5872 5871 5871 5870 5869 5869 5868 5867 5866 5866 5865
5905 5907 5908 5910 5912 5911 5909 5908 5906 5905 5903 5902 5900 5898 5897 5896 5895 5894 5892 5890 5888 5888 5886 5886 5884 5883 5881 5881 5879 5878 5878 5877 5876 5875 5875 5874 5873 5872 5872 5871 5870 5869 5868 5868 5867 5866 5865 5864 5864
5904 5907 5908 5910 5912 5909 5908 5907 5906 5904 5903 5901 5900 5898 5897 5896 5895 5894 5892 5890 5888 5887 5886 5885 5884 5882 5881 5880 5879 5878 5877 5876 5876 5875 5874 5873 5872 5872 5871 5870 5869 5869 5868 5867 5866 5865 5864 5864 5863
5904 5906 5907 5909 5908 5907 5906 5906 5905 5903 5902 5901 5899 5898 5897 5896 5895 5893 5892 5890 5889 5887 5886 5885 5883 5882 5881 5880 5878 5877 5877 5876 5875 5874 5873 5872 5871 5871 5870 5869 5868 5868 5867 5866 5865 5864 5863 5863 5863
5903 5904 5905 5906 5905 5905 5905 5905 5904 5902 5901 5899 5898 5897 5897 5896 5894 5893 5892 5890 5889 5887 5886 5884 5883 5882 5880 5879 5878 5877 5876 5875 5874 5873 5872 5871 5870 5869 5869 5868 5867 5866 5866 5865 5864 5863 5862 5862 5862
5901 5902 5902 5903 5903 5903 5903 5903 5903 5901 5900 5898 5897 5896 5896 5895 5893 5892 5891 5890 5888 5887 5885 5884 5882 5881 5880 5879 5877 5876 5875 5874 5873 5872 5871 5870 5868 5868 5867 5867 5866 5865 5865 5864 5862 5862 5861 5861 5861
5899 5899 5900 5900 5901 5900 5900 5901 5901 5900 5899 5896 5895 5895 5895 5893 5892 5891 5890 5889 5888 5886 5885 5883 5882 5880 5879 5878 5876 5875 5874 5873 5872 5871 5870 5869 5867 5867 5866 5865 5864 5864 5863 5862 5861 5861 5860 5860 5860
5896 5897 5897 5898 5898 5898 5898 5899 5899 5898 5897 5896 5895 5894 5893 5892 5891 5890 5889 5888 5887 5885 5884 5882 5881 5880 5878 5877 5875 5874 5873 5872 5871 5870 5869 5868 5867 5866 5865 5864 5863 5862 5862 5861 5860 5860 5860 5860 5859
5893 5894 5895 5896 5896 5896 5897 5897 5897 5897 5896 5895 5894 5893 5892 5891 5890 5889 5888 5887 5886 5884 5883 5881 5880 5879 5877 5876 5874 5873 5872 5871 5870 5869 5868 5867 5865 5864 5864 5863 5862 5861 5860 5860 5859 5859 5859 5858 5858
5890 5892 5893 5893 5894 5894 5895 5894 5894 5894 5894 5893 5892 5891 5890 5889 5887 5887 5886 5885 5884 5883 5881 5880 5879 5877 5876 5874 5873 5872 5871 5870 5869 5868 5866 5865 5864 5863 5862 5862 5861 5860 5859 5858 5858 5857 5857 5857 5857
5888 5889 5891 5892 5891 5892 5892 5892 5892 5892 5891 5891 5890 5889 5888 5888 5887 5886 5885 5883 5882 5881 5880 5878 5877 5875 5874 5873 5871 5870 5869 5868 5867 5866 5864 5863 5862 5861 5860 5860 5859 5858 5857 5856 5856 5856 5856 5855 5855
5888 5889 5891 5890 5890 5889 5889 5890 5890 5889 5889 5889 5888 5887 5886 5885 5885 5884 5883 5882 5880 5879 5878 5877 5875 5874 5872 5871 5870 5868 5867 5866 5865 5863 5862 5861 5860 5859 5858 5858 5857 5856 5856 5855 5855 5854 5854 5854 5854
5886 5887 5888 5889 5889 5888 5886 5887 5887 5887 5886 5885 5885 5884 5884 5883 5883 5881 5880 5879 5878 5877 5875 5874 5873 5871 5870 5868 5867 5866 5865 5864 5863 5861 5860 5858 5857 5856 5856 5855 5855 5855 5854 5854 5854 5853 5853 5853 5852
5882 5884 5885 5886 5885 5885 5884 5884 5884 5884 5883 5883 5882 5881 5881 5881 5880 5879 5878 5876 5876 5875 5873 5871 5870 5869 5867 5866 5865 5864 5862 5861 5860 5859 5857 5856 5855 5854 5853 5853 5853 5852 5852 5852 5852 5852 5852 5851 5851
5879 5881 5882 5882 5882 5881 5881 5881 5881 5881 5880 5879 5880 5879 5879 5878 5877 5875 5874 5873 5873 5871 5870 5869 5867 5866 5865 5863 5862 5861 5860 5858 5857 5856 5855 5854 5852 5851 5850 5850 5850 5850 5850 5850 5850 5850 5850 5850 5850
5876 5877 5878 5878 5879 5878 5879 5878 5877 5877 5877 5877 5876 5876 5875 5875 5874 5872 5872 5870 5869 5868 5867 5866 5864 5863 5862 5860 5859 5858 5856 5855 5854 5853 5852 5851 5850 5849 5848 5847 5847 5847 5848 5848 5848 5848 5848 5848 5848
5872 5873 5874 5874 5875 5875 5875 5874 5874 5873 5872 5872 5873 5873 5871 5871 5870 5869 5868 5867 5866 5865 5863 5862 5861 5860 5859 5857 5856 5854 5853 5852 5850 5849 5848 5847 5847 5846 5845 5845 5844 5845 5845 5846 5846 5846 5846 5846 5846
5868 5870 5870 5870 5871 5871 5872 5872 5871 5869 5869 5869 5869 5869 5868 5868 5866 5865 5864 5863 5863 5862 5860 5859 5858 5857 5855 5854 5852 5851 5850 5848 5847 5845 5845 5844 5844 5843 5843 5843 5843 5843 5843 5843 5843 5843 5844 5844 5845
5865 5867 5868 5868 5867 5868 5869 5868 5867 5866 5866 5865 5864 5865 5865 5864 5863 5862 5860 5858 5859 5858 5857 5855 5854 5853 5851 5850 5849 5847 5846 5845 5843 5842 5841 5840 5840 5840 5839 5839 5840 5840 5840 5840 5840 5841 5841 5841 5842
5861 5863 5865 5866 5866 5866 5865 5864 5863 5862 5861 5861 5860 5860 5860 5860 5859 5857 5856 5855 5855 5854 5853 5851 5850 5849 5848 5846 5845 5843 5842 5841 5839 5838 5837 5836 5836 5836 5836 5836 5836 5837 5837 5837 5837 5838 5838 5838 5839
5858 5859 5861 5862 5861 5861 5861 5860 5857 5857 5856 5857 5857 5856 5855 5856 5854 5854 5853 5852 5851 5850 5849 5847 5846 5845 5844 5842 5841 5839 5838 5836 5835 5834 5833 5832 5832 5832 5832 5832 5832 5833 5833 5834 5834 5834 5834 5835 5835
5855 5856 5857 5858 5857 5857 5857 5855 5854 5852 5853 5853 5852 5851 5850 5851 5850 5849 5848 5847 5846 5845 5844 5843 5842 5840 5839 5837 5836 5835 5834 5832 5831 5829 5828 5828 5827 5827 5828 5828 5828 5829 5829 5830 5830 5831 5831 5831 5832
5850 5852 5852 5852 5853 5853 5853 5853 5848 5848 5849 5848 5848 5847 5847 5846 5846 5845 5843 5842 5841 5840 5839 5838 5837 5836 5834 5833 5831 5830 5829 5827 5826 5825 5824 5823 5823 5823 5823 5823 5824 5824 5825 5825 5826 5826 5827 5828 5828
5846 5847 5848 5849 5848 5849 5849 5850 5845 5845 5845 5844 5843 5841 5839 5840 5840 5839 5838 5837 5836 5835 5833 5833 5832 5831 5830 5828 5827 5825 5824 5823 5821 5820 5819 5818 5817 5817 5818 5818 5819 5820 5820 5821 5821 5822 5823 5823 5824